Theta_e
318 320 320 319 319 320 320 319 320 320 320 320 321 321 321 321 321 321 321 321 321 321 320 320 320 320 321 322 323 324 328 331 328 343 347 350 351 352 352 352 349 347 347 346
321 320 320 320 320 319 319 319 319 320 320 321 321 321 322 322 321 321 321 321 320 320 320 320 321 321 321 321 321 321 324 326 324 333 342 344 349 349 350 350 351 349 349 348
320 321 320 319 319 319 320 320 320 320 321 321 321 321 321 322 321 321 321 320 320 320 321 321 321 321 321 321 321 321 320 322 323 329 331 339 347 348 346 348 352 350 348 349
320 320 320 318 319 320 320 320 319 319 320 320 322 323 324 324 324 323 323 322 321 322 321 320 320 320 320 320 321 321 320 320 321 324 328 328 333 343 343 344 347 349 349 348
319 318 318 319 319 319 318 319 320 320 321 322 322 323 324 324 325 325 323 323 322 321 320 319 319 319 319 319 320 321 321 322 321 319 319 327 329 331 338 343 344 346 349 349
319 319 319 319 319 319 319 320 320 321 322 323 324 325 325 325 325 325 324 322 321 319 318 319 318 318 319 319 320 321 323 324 324 322 324 326 320 325 338 339 341 347 347 348
318 319 320 319 319 320 319 321 322 324 325 326 326 326 326 325 324 323 323 321 319 318 318 318 318 317 318 319 320 321 322 323 325 326 324 326 328 324 321 340 342 342 347 347
321 322 320 320 320 320 321 322 324 328 327 326 325 327 326 325 323 322 321 319 318 318 318 317 317 316 317 318 319 319 321 322 324 326 327 326 327 331 336 335 344 344 345 347
320 322 321 320 320 321 321 322 322 324 325 327 325 325 325 325 324 321 318 317 318 317 316 316 315 316 317 317 318 320 321 322 324 325 327 327 327 332 333 338 341 340 347 338
320 322 321 321 320 320 320 321 322 325 329 328 325 326 325 323 322 321 319 317 316 315 316 315 315 316 316 317 318 319 320 321 324 326 328 328 328 331 334 335 339 341 340 343
319 320 323 322 322 321 321 322 321 322 323 328 327 324 323 321 321 320 319 317 315 316 315 315 316 317 316 317 318 319 320 322 322 324 328 330 332 333 336 339 339 341 341 339
318 319 323 321 320 321 321 320 320 328 328 326 330 328 323 322 320 317 316 316 316 316 315 315 317 317 316 316 318 318 320 321 322 321 324 326 329 332 333 335 339 337 337 339
319 321 324 322 322 320 320 320 319 320 321 323 327 324 321 319 320 318 317 317 316 315 315 316 317 316 315 315 317 317 318 319 321 321 321 322 323 327 330 331 331 332 333 332
314 319 322 323 324 322 322 320 319 320 325 323 323 321 321 321 321 318 316 316 315 315 316 317 317 316 315 315 315 316 317 317 318 321 321 321 321 323 325 326 330 328 328 328
315 319 318 317 318 318 318 317 318 318 318 320 319 319 319 318 317 316 315 315 316 316 316 316 316 316 315 314 314 314 316 316 316 317 321 320 317 319 320 324 329 329 323 328
316 319 318 318 317 317 317 316 316 316 316 317 316 316 316 315 314 315 317 317 316 316 316 315 315 314 314 314 314 313 314 314 315 316 316 320 318 316 316 319 323 323 326 324
316 316 319 321 317 317 317 315 315 315 315 314 314 316 317 317 317 317 316 316 314 313 313 312 313 313 313 313 313 313 313 313 313 314 315 316 318 315 315 315 317 322 325 326
313 315 318 317 316 318 316 315 314 315 316 317 317 317 317 316 315 314 313 313 312 312 312 312 311 311 311 312 313 312 312 312 312 312 313 314 316 315 314 314 316 317 323 323
311 314 317 319 318 316 314 316 317 317 317 316 318 317 315 314 313 313 312 311 311 309 308 307 307 307 307 307 308 310 310 310 311 312 312 312 313 316 315 314 313 316 316 321
315 313 314 317 319 318 318 317 315 315 316 317 315 314 314 312 315 314 311 309 309 308 307 306 305 304 304 304 305 307 307 309 309 310 311 312 312 313 315 317 315 315 315 318
316 316 319 317 319 316 316 315 314 316 318 314 313 312 311 312 311 308 308 307 306 305 304 304 301 301 303 302 302 303 304 306 307 309 310 311 311 312 313 316 317 314 315 315
318 317 317 317 318 317 315 315 316 315 312 311 311 310 309 308 307 307 306 305 304 303 302 301 301 301 301 302 301 304 303 303 306 306 308 309 310 311 312 313 315 314 314 314
316 316 318 317 317 315 313 313 312 311 310 310 309 308 307 307 306 305 305 303 302 301 300 299 299 298 298 299 300 300 302 305 304 304 307 308 309 309 311 312 313 315 315 315
314 313 315 314 314 314 313 312 311 310 309 308 307 306 306 305 304 304 303 301 299 298 297 297 296 296 296 297 299 300 301 302 303 303 305 306 307 308 310 310 311 312 314 315
312 312 313 313 313 312 312 311 309 308 307 306 306 305 304 304 303 302 299 297 296 295 295 295 295 295 295 296 297 299 301 302 303 305 305 304 307 307 307 308 309 311 312 314
311 312 314 315 312 310 310 309 308 307 306 306 305 303 304 303 301 298 297 295 294 294 294 294 294 295 295 296 297 299 300 300 302 302 304 304 306 306 306 307 308 309 310 311
Wind_Speed
16 13 15 17 17 18 16 13 13 8 9 9 13 16 16 16 15 19 19 19 18 16 15 15 16 16 17 16 15 16 14 15 17 20 24 25 27 28 33 37 36 35 37 37
13 15 16 14 11 10 13 14 16 15 12 12 16 19 16 17 17 22 20 21 18 16 15 12 13 14 17 19 22 22 20 19 19 18 25 28 27 28 31 33 37 35 36 40
18 12 7 12 13 14 15 16 16 15 12 11 16 21 21 21 28 23 17 17 17 13 12 10 14 16 18 20 22 25 26 24 22 19 21 27 30 32 31 32 33 39 42 45
15 16 14 11 16 14 16 15 15 15 14 14 14 14 15 12 12 16 18 15 16 10 9 13 15 16 17 18 20 21 26 30 28 25 23 25 33 35 38 34 34 35 40 46
15 15 15 19 18 13 15 12 11 12 16 17 19 13 15 14 17 14 9 19 5 13 10 15 18 19 20 22 20 21 22 23 28 33 35 29 30 36 38 35 36 37 37 40
18 8 7 12 12 13 10 11 14 16 16 17 20 18 17 17 11 6 11 3 8 13 13 16 17 19 21 21 21 20 21 22 25 27 33 34 35 36 35 40 40 37 38 40
16 19 17 14 14 13 13 12 12 15 14 17 18 17 14 6 7 7 10 12 12 14 13 14 16 19 20 22 23 23 22 23 22 23 30 34 35 35 39 41 40 42 40 41
13 14 18 15 22 17 17 16 11 14 16 18 21 17 9 5 5 10 12 9 11 12 15 18 22 25 23 22 23 23 24 26 23 24 27 33 34 35 37 40 43 39 42 40
10 18 16 10 11 9 14 16 15 18 19 17 18 25 22 21 13 5 7 12 12 16 18 22 24 24 25 25 25 20 20 23 25 27 28 29 33 34 36 38 42 46 39 56
9 16 19 16 6 14 13 14 13 8 9 18 14 15 8 8 5 5 3 11 14 17 17 24 25 25 23 25 25 21 21 22 23 24 23 25 29 32 34 37 42 39 51 45
9 6 9 17 13 15 11 13 13 15 13 11 16 11 6 3 8 13 16 14 15 19 22 22 24 22 21 22 21 20 19 20 22 22 21 20 23 25 27 30 36 38 41 53
7 7 13 19 17 16 17 16 13 9 13 13 13 14 18 18 6 7 11 17 25 22 21 20 20 19 19 21 19 19 17 19 15 19 18 16 14 19 20 21 21 30 33 33
5 6 10 12 19 20 15 15 15 16 18 23 18 15 7 10 11 21 21 19 22 21 24 17 17 19 19 21 19 18 18 18 16 13 12 12 15 13 13 12 13 14 16 19
7 13 13 12 6 3 7 13 15 15 13 18 20 24 22 22 23 17 21 22 20 22 22 20 20 23 20 20 22 20 20 18 17 15 12 8 9 13 13 13 13 18 14 13
5 12 19 20 21 20 22 22 21 22 23 23 25 26 23 22 22 23 28 18 21 22 22 23 24 26 22 24 25 26 23 21 20 18 16 14 17 13 14 9 10 14 19 11
4 5 16 19 20 21 23 22 21 23 24 24 25 25 22 26 25 20 21 22 26 27 23 29 30 30 31 31 28 26 26 24 23 23 21 18 24 27 23 14 18 17 15 22
4 5 5 15 17 16 16 18 18 15 17 18 18 17 17 19 17 21 20 23 28 33 35 36 34 34 36 33 29 28 28 28 28 27 25 21 18 23 32 33 18 10 14 17
4 10 6 7 9 12 9 0 7 10 14 15 15 15 15 15 20 28 31 35 33 31 31 31 34 38 37 32 32 31 30 32 32 31 29 27 20 20 24 33 31 19 10 16
13 6 4 4 7 13 17 5 4 8 16 15 16 19 23 30 35 34 33 25 31 34 39 44 45 44 44 46 47 41 40 38 37 35 33 29 28 22 22 34 32 32 20 13
15 14 6 4 5 4 4 3 5 10 15 12 18 18 22 30 19 18 37 40 41 43 42 43 46 46 45 44 44 42 43 40 41 39 35 33 29 29 24 24 35 36 32 18
4 5 9 11 7 7 7 7 9 9 6 27 26 28 30 21 22 42 44 49 48 45 46 42 48 48 44 47 44 46 43 43 39 37 38 35 32 31 28 21 23 33 40 34
8 4 5 7 4 6 8 10 8 15 24 26 31 31 33 37 41 47 50 49 49 48 47 43 44 44 44 40 43 40 41 42 35 37 40 38 32 29 27 28 23 23 32 31
4 3 2 3 4 7 4 7 12 10 21 26 30 33 36 41 45 47 50 49 48 44 44 43 40 41 40 37 37 42 39 33 33 38 33 36 35 27 30 28 27 23 22 31
3 1 5 7 2 9 14 14 16 23 28 30 32 35 36 42 46 49 47 47 46 46 44 42 41 40 39 33 31 34 32 27 29 36 32 38 32 31 25 28 26 27 27 25
6 6 8 10 8 16 9 21 26 28 27 31 33 35 39 40 44 42 47 47 47 46 43 40 40 38 37 31 28 26 27 27 32 28 32 32 32 32 28 30 29 29 29 30
6 4 3 3 13 12 20 24 26 28 30 31 34 40 40 39 43 46 47 47 45 44 44 40 36 33 31 25 23 22 21 24 22 25 25 29 30 30 30 28 29 34 30 33
Wind_Direction
203 225 223 234 222 258 293 287 296 263 232 243 263 275 271 267 255 253 252 255 254 250 254 256 260 264 269 277 284 291 283 280 243 247 237 241 235 232 230 230 226 225 227 230
222 232 253 241 266 261 260 258 258 261 265 259 268 267 268 262 256 255 263 265 260 259 256 265 280 292 287 286 290 291 282 284 276 251 250 243 244 239 241 236 233 225 225 226
234 233 200 269 243 240 240 251 263 265 275 260 265 265 253 247 245 250 265 262 264 266 273 298 296 293 291 288 288 286 287 283 280 267 251 249 247 244 241 237 236 231 224 227
245 242 241 251 241 232 246 240 243 255 262 262 266 282 274 276 259 217 219 241 245 250 292 294 291 293 298 298 294 294 282 279 279 278 265 253 247 245 241 237 235 232 231 229
240 229 242 236 238 238 256 275 273 269 267 277 266 264 266 252 248 234 232 239 248 268 283 286 296 299 300 300 300 299 295 288 281 280 273 259 257 252 247 242 239 235 229 233
261 274 277 252 234 240 279 265 261 264 262 259 261 261 268 261 276 266 202 263 310 305 294 292 295 300 299 301 298 301 304 298 286 275 272 268 260 250 248 242 237 233 229 233
257 255 252 229 259 242 224 256 266 260 247 256 257 247 258 310 284 223 274 302 301 294 290 288 300 302 306 304 300 299 300 304 298 288 271 269 264 260 252 242 239 232 225 227
273 257 229 244 225 250 256 246 258 269 273 287 295 279 270 291 263 275 263 278 278 284 284 296 300 296 299 306 307 297 300 300 301 296 283 266 261 259 252 249 239 236 230 222
280 274 283 243 293 279 261 253 296 294 283 278 276 279 276 269 215 236 248 246 260 268 290 295 296 299 298 297 303 299 303 305 302 304 290 273 257 253 249 246 245 236 228 228
295 294 278 272 254 254 257 286 278 259 271 266 267 279 270 341 295 264 254 271 282 283 286 290 300 296 297 296 297 291 300 310 309 309 300 280 262 253 252 246 243 237 229 245
249 253 273 298 243 258 243 246 248 265 256 265 280 273 308 262 314 304 305 298 296 286 284 302 298 297 297 296 298 298 299 306 311 315 307 287 269 258 251 249 242 236 233 236
251 263 262 260 265 269 268 270 270 248 269 251 264 267 276 283 284 288 276 270 268 289 296 286 294 297 295 297 298 299 301 307 312 322 314 308 285 264 252 246 239 233 230 238
249 230 266 256 237 232 245 264 268 262 267 259 268 269 241 237 266 247 268 289 300 306 296 286 285 287 297 298 297 298 303 302 305 318 335 342 328 287 260 233 207 202 201 214
279 265 258 273 287 170 281 278 277 275 265 269 264 282 281 282 286 299 301 295 301 299 289 283 281 283 289 295 297 294 294 299 304 292 290 317 356 323 274 225 211 191 183 201
325 262 261 265 277 283 286 281 273 264 261 262 276 277 282 299 305 299 295 307 305 293 315 312 294 289 289 288 288 288 285 285 293 294 280 263 262 328 351 264 237 213 182 191
185 267 274 268 261 265 268 271 269 269 274 275 280 283 285 282 290 302 348 321 304 308 303 298 302 297 296 292 283 277 281 281 282 283 283 277 266 253 288 331 278 214 205 173
255 248 259 258 257 262 263 260 265 276 264 268 276 299 326 311 328 331 318 303 304 303 301 299 299 300 302 290 279 277 277 277 275 274 272 269 274 253 259 268 308 279 243 198
220 270 243 273 287 262 283 56 271 279 286 287 307 300 324 327 317 319 309 304 306 310 312 305 302 299 295 292 282 286 278 275 272 267 266 262 249 258 238 232 264 288 274 239
202 223 265 257 250 285 280 321 15 333 307 322 3 349 337 328 319 300 298 324 316 308 304 300 293 289 286 284 282 279 277 270 266 262 259 256 255 238 243 233 228 249 275 267
198 222 239 271 249 269 86 172 336 322 279 22 344 325 321 317 300 304 320 310 304 302 299 297 292 288 284 281 279 274 268 265 258 256 257 254 246 248 230 235 235 225 242 257
177 205 226 236 254 272 27 358 324 273 335 329 329 324 319 313 304 305 306 306 304 301 299 295 292 287 282 283 274 272 270 263 259 252 247 252 246 239 232 228 229 225 223 237
197 209 199 225 241 253 21 328 340 336 324 322 319 318 314 308 306 307 306 305 307 303 300 296 293 287 285 279 274 267 266 260 259 253 245 243 247 236 221 220 225 223 225 224
257 237 271 240 268 295 55 327 324 342 323 319 317 315 315 309 305 306 311 307 308 306 303 302 295 292 289 282 272 269 263 261 252 248 246 242 242 242 227 217 215 218 219 224
272 223 251 288 285 354 331 334 349 335 323 318 316 313 310 308 310 308 308 310 310 309 305 303 300 296 292 287 276 269 266 254 246 241 237 234 232 231 225 221 219 215 216 220
285 259 276 282 15 334 351 339 333 320 320 316 315 315 314 316 313 313 313 313 310 309 308 306 302 298 295 289 278 268 260 254 245 244 233 232 233 224 225 224 223 222 221 216
295 339 322 296 342 339 316 324 318 322 323 322 320 319 319 321 318 318 314 314 313 312 315 312 308 304 300 289 278 269 258 247 246 241 228 223 224 218 223 225 227 229 224 220